STARLINK-32118, 60280

Orbit data source: Space-Track

STARLINK-32118, 60280 is a payload satellite owned by SpaceX/Seattle (US) in LEO that was launched on Sun, 28 Jul 2024 UTC via an FALCON 9 launch vehicle from the Air Force Eastern Test Range (AFETR). Payload-class satellites include a variety of spacecraft equipped with specific instruments for various scientific and technological missions. These include communications satellites like Starlink; space stations such as the ISS; scientific satellites like the Hubble; Earth observation satellites from companies like Planet Labs, Umbra, and HawkEye 360; GPS; miniature CubeSats for education and research; and military/defense satellites.

Loading next visibility...
Identifier
60280, 2024-132C
Orbit
LEO
Last TLE update
22 hours ago
Origin
Manufacturer
SpaceX/Seattle
Mission
Operational spacecraft
Bus & Motor
STARLINK V2M, Unknown motor
Mass
730 kg wet, ~700 kg dry
Launch date (UTC)
2024-07-28 (11 months ago)
Launch vehicle
FALCON 9
Launch site
Air Force Eastern Test Range (AFETR)
Object type
Payload
Rocket body
Debris
Shape & HBR
Unknown
Radar Cross Section
Large (>1 m²)

Expand to show TLE details & history

TLE from 22 hours ago
0 STARLINK-32118
1 60280U 24132C   25169.36757600 -.00000108  00000-0  84904-5 0  9995
2 60280  53.1597 200.0288 0001108  78.5533 281.5592 15.30196027 51090
Epoch: 2025-06-18T08:49Z
TLE epoch observation values (Epoch: 2025-06-18T08:49:18.566Z)
Latitude
-0.00003°
Longitude
160.85079°
Altitude
475.975 km
Speed
7.629 km/s
True Right ascension
13h 20m 06s
True Declination
0° 00' 00"
Sunlit
Object was in daylight at epoch
Visualization orbit readout
Latitude
6.57959°
Longitude
161.52521°
Altitude
475.29 km
Speed
7.63 km/s
Apparent Right ascension
10h 29m 19s
Apparent Declination
-27° 10' 20"
Sunlit
Object is in daylight
Visualization observer readout
Local Sidereal Time
17:38:43
Azimuth
258.032° W
Elevation
-29.771°
Doppler factor
1
Orbital elements
Apogee altitude
476.243 km
Perigee altitude
474.724 km
Semi-major axis
6,853.62 km
Eccentricity
0.00011
Inclination
53.1597°
RAAN
200.0288°
Arg. of periapsis
78.5533°
True anomaly
Unknown
Mean anomaly
281.5592°
Eccentric anomaly
Unknown
Mean motion
3.82528 °/min
Orbital period
94.11 mins
BSTAR
0.0000084904
Loading maneuver chart data...
Loading SW <> Apogee altitude chart data...
Loading historical data...
Loading historical data...
Loading historical data...
Loading historical data...
Loading historical data...
Loading historical data...
Loading historical data...

STARLINK-32118 Visibility forecast

Observer location: undefined°, undefined°

Span
Click to sort rows by Start time (UTC) header in descending order
Start Az.
Max El. time (UTC)
Max El. Az.
Max El.
End time (UTC)
End Az.
4 mins2025-06-19 10:23:11.275Z357.653° N2025-06-19 10:24:11.275Z23.697° NE23.473°2025-06-19 10:27:11.275Z84.059° E
5 mins2025-06-19 12:00:11.275Z290.439° WNW2025-06-19 12:02:11.275Z236.065° WSW35.46°2025-06-19 12:05:11.275Z155.246° SSE
5 mins2025-06-20 04:56:11.275Z263.664° W2025-06-20 04:58:11.275Z340.737° N35.842°2025-06-20 05:01:11.275Z39.256° NE
|